Погода в Тотурбийкала

Россия / Республика Дагестан     43°12′28″N   46°41′22″E
темп.,
°C
ветер,
м/с
пор.,
м/с
влажн.,
%
обл.,
%
осадки,
мм/ч
давл.,
гПа
погр.,
м
12 апреля, пн
пн1200:00+10з2274100 0.0 101523
03:00+10з2273100 0.0 101528
06:00+10з3575100 0.0 1017101
09:00+14зсз5661100 0.0 1019686
12:00+17сз4451100 0.0 10191162
15:00+18ссв3251100 0.0 10191379
18:00+16св236699 0.0 102043
21:00+12з22778 0.0 102120
13 апреля, вт
вт1300:00+11з35864 0.0 102194
03:00+10з368827 0.0 1021120
06:00+10з2286100 0.0 102259
09:00+14с2268100 0.0 1021730
12:00+18в255561 0.0 10201385
15:00+19в78466 0.0 10181065
18:00+13в466657 0.0 1018222
21:00+11в0176100 0.0 101914
14 апреля, ср
ср1400:00+9в127846 0.0 101622
03:00+10з2279100 0.0 101537
06:00+10з379083 0.0 1015196
09:00+16зсз4568100 0.0 1015723
12:00+18зсз6659100 0.1 10151407
15:00+13юз71074100 1.3 1016432
18:00+14вюв1169100 0.8 101729
21:00+13зюз3374100 0.9 101769
15 апреля, чт
чт1500:00+11юз4990100 2.3 1017407
03:00+11юз3780100 3.4 1016170
06:00+11з3680100 0.0 1016143
09:00+16зсз57606 0.0 1016944
12:00+19зсз674724 0.0 10141413
15:00+20сз56425 0.0 10131749
18:00+17сз23540 0.0 101330
21:00+14юз33580 0.0 101436
16 апреля, пт
пт1600:00+13ююз2255100 0.0 101315
03:00+12ююз11555 0.0 101211
06:00+12зюз225691 0.0 101316
09:00+18зсз444635 0.0 1014605
12:00+21сз443857 0.0 10141576
15:00+22сз3334100 0.0 10132201
18:00+17зюз4758100 0.0 1015200
21:00+13зсз698891 0.1 1017439